Time,TemperatureF,DewpointF,PressureIn,WindDirection,WindDirectionDegrees,WindSpeedMPH,WindSpeedGustMPH,Humidity,HourlyPrecipIn,Conditions,Clouds,dailyrainin,SoftwareType,DateUTC
2013-02-04 00:00:00,21.6,-18.7,29.57,West,270,3.4,3.4,16,0.00,,,0.00,WUHU216HW,2013-02-04 05:00:00,
2013-02-04 00:02:00,21.6,-18.7,29.57,West,270,3.4,3.4,16,0.00,,,0.00,WUHU216HW,2013-02-04 05:02:00,
2013-02-04 00:05:00,21.6,-18.7,29.57,West,270,3.4,3.4,16,0.00,,,0.00,WUHU216HW,2013-02-04 05:05:00,
2013-02-04 00:07:00,21.6,-18.7,29.57,West,270,3.4,3.4,16,0.00,,,0.00,WUHU216HW,2013-02-04 05:07:00,
2013-02-04 00:30:00,21.4,-26.8,29.58,WNW,293,4.3,4.3,2,0.00,,,0.00,WUHU216HW,2013-02-04 05:30:00,
2013-02-04 00:35:00,21.4,-26.8,29.58,WNW,293,4.3,4.3,2,0.00,,,0.00,WUHU216HW,2013-02-04 05:35:00,
2013-02-04 00:59:00,20.7,-27.3,29.58,NW,315,3.1,3.1,2,0.00,,,0.00,WUHU216HW,2013-02-04 05:59:00,
2013-02-04 01:00:00,20.7,-27.3,29.58,NW,315,3.1,3.1,2,0.00,,,0.00,WUHU216HW,2013-02-04 06:00:00,
2013-02-04 01:04:00,20.7,-27.3,29.58,NW,315,3.1,3.1,2,0.00,,,0.00,WUHU216HW,2013-02-04 06:04:00,
2013-02-04 01:05:00,20.7,-27.3,29.58,NW,315,3.1,3.1,2,0.00,,,0.00,WUHU216HW,2013-02-04 06:05:00,
2013-02-04 01:30:00,20.3,-27.6,29.57,West,270,2.5,2.5,2,0.00,,,0.00,WUHU216HW,2013-02-04 06:30:00,
2013-02-04 01:35:00,20.3,-27.6,29.57,West,270,2.5,2.5,2,0.00,,,0.00,WUHU216HW,2013-02-04 06:35:00,
2013-02-04 01:59:00,20.2,-22.5,29.58,WSW,248,4.7,4.7,14,0.00,,,0.00,WUHU216HW,2013-02-04 06:59:00,
2013-02-04 02:00:00,20.2,-22.5,29.58,WSW,248,4.7,4.7,14,0.00,,,0.00,WUHU216HW,2013-02-04 07:00:00,
2013-02-04 02:05:00,20.2,-22.5,29.58,WSW,248,4.7,4.7,14,0.00,,,0.00,WUHU216HW,2013-02-04 07:05:00,
2013-02-04 02:29:00,19.8,-0.1,29.58,West,270,6.0,6.0,41,0.00,,,0.00,WUHU216HW,2013-02-04 07:29:00,
2013-02-04 02:30:00,19.8,-0.1,29.58,West,270,6.0,6.0,41,0.00,,,0.00,WUHU216HW,2013-02-04 07:30:00,
2013-02-04 02:35:00,19.8,-0.1,29.58,West,270,6.0,6.0,41,0.00,,,0.00,WUHU216HW,2013-02-04 07:35:00,
2013-02-04 02:59:00,20.0,5.0,29.59,WNW,293,5.4,5.4,52,0.00,,,0.00,WUHU216HW,2013-02-04 07:59:00,
2013-02-04 03:00:00,20.0,5.0,29.59,WNW,293,5.4,5.4,52,0.00,,,0.00,WUHU216HW,2013-02-04 08:00:00,
2013-02-04 03:04:00,20.0,5.0,29.59,WNW,293,5.4,5.4,52,0.00,,,0.00,WUHU216HW,2013-02-04 08:04:00,
2013-02-04 03:05:00,20.0,5.0,29.59,WNW,293,5.4,5.4,52,0.00,,,0.00,WUHU216HW,2013-02-04 08:05:00,
2013-02-04 03:29:00,20.0,6.7,29.59,West,270,7.4,7.4,56,0.00,,,0.00,WUHU216HW,2013-02-04 08:29:00,
2013-02-04 03:30:00,20.0,6.7,29.59,West,270,7.4,7.4,56,0.00,,,0.00,WUHU216HW,2013-02-04 08:30:00,
2013-02-04 03:35:00,20.0,6.7,29.59,West,270,7.4,7.4,56,0.00,,,0.00,WUHU216HW,2013-02-04 08:35:00,
2013-02-04 03:59:00,19.3,1.7,29.60,West,270,6.5,6.5,46,0.00,,,0.00,WUHU216HW,2013-02-04 08:59:00,
2013-02-04 04:00:00,19.3,1.7,29.60,West,270,6.5,6.5,46,0.00,,,0.00,WUHU216HW,2013-02-04 09:00:00,
2013-02-04 04:04:00,19.3,1.7,29.60,West,270,6.5,6.5,46,0.00,,,0.00,WUHU216HW,2013-02-04 09:04:00,
2013-02-04 04:05:00,19.3,1.7,29.60,West,270,6.5,6.5,46,0.00,,,0.00,WUHU216HW,2013-02-04 09:05:00,
2013-02-04 04:29:00,18.5,-19.9,29.61,West,270,8.3,8.3,17,0.00,,,0.00,WUHU216HW,2013-02-04 09:29:00,
2013-02-04 04:30:00,18.5,-19.9,29.61,West,270,8.3,8.3,17,0.00,,,0.00,WUHU216HW,2013-02-04 09:30:00,
2013-02-04 04:35:00,18.5,-19.9,29.61,West,270,8.3,8.3,17,0.00,,,0.00,WUHU216HW,2013-02-04 09:35:00,
2013-02-04 04:59:00,18.2,-20.2,29.62,WNW,293,3.4,3.4,17,0.00,,,0.00,WUHU216HW,2013-02-04 09:59:00,
2013-02-04 05:00:00,18.2,-20.2,29.62,WNW,293,3.4,3.4,17,0.00,,,0.00,WUHU216HW,2013-02-04 10:00:00,
2013-02-04 05:04:00,18.2,-20.2,29.62,WNW,293,3.4,3.4,17,0.00,,,0.00,WUHU216HW,2013-02-04 10:04:00,
2013-02-04 05:05:00,18.2,-20.2,29.62,WNW,293,3.4,3.4,17,0.00,,,0.00,WUHU216HW,2013-02-04 10:05:00,
2013-02-04 05:06:00,18.2,-20.2,29.62,WNW,293,3.4,3.4,17,0.00,,,0.00,WUHU216HW,2013-02-04 10:06:00,
2013-02-04 05:29:00,18.2,-20.2,29.62,West,270,4.9,4.9,17,0.00,,,0.00,WUHU216HW,2013-02-04 10:29:00,
2013-02-04 05:30:00,18.2,-20.2,29.62,West,270,4.9,4.9,17,0.00,,,0.00,WUHU216HW,2013-02-04 10:30:00,
2013-02-04 05:35:00,18.2,-20.2,29.62,West,270,4.9,4.9,17,0.00,,,0.00,WUHU216HW,2013-02-04 10:35:00,
2013-02-04 05:59:00,18.0,-29.4,29.62,WNW,293,1.6,1.6,5,0.00,,,0.00,WUHU216HW,2013-02-04 10:59:00,
2013-02-04 06:00:00,18.0,-29.4,29.62,WNW,293,1.6,1.6,5,0.00,,,0.00,WUHU216HW,2013-02-04 11:00:00,
2013-02-04 06:04:00,18.0,-29.4,29.62,WNW,293,1.6,1.6,5,0.00,,,0.00,WUHU216HW,2013-02-04 11:04:00,
2013-02-04 06:05:00,18.0,-29.4,29.62,WNW,293,1.6,1.6,5,0.00,,,0.00,WUHU216HW,2013-02-04 11:05:00,
2013-02-04 06:30:00,18.0,-29.4,29.63,West,270,2.0,2.0,1,0.00,,,0.00,WUHU216HW,2013-02-04 11:30:00,
2013-02-04 06:35:00,18.0,-29.4,29.63,West,270,2.0,2.0,1,0.00,,,0.00,WUHU216HW,2013-02-04 11:35:00,
2013-02-04 06:59:00,18.0,-29.4,29.64,West,270,2.7,2.7,1,0.00,,,0.00,WUHU216HW,2013-02-04 11:59:00,
2013-02-04 07:00:00,18.0,-29.4,29.64,West,270,2.7,2.7,1,0.00,,,0.00,WUHU216HW,2013-02-04 12:00:00,
2013-02-04 07:04:00,18.0,-29.4,29.64,West,270,2.7,2.7,1,0.00,,,0.00,WUHU216HW,2013-02-04 12:04:00,
2013-02-04 07:05:00,18.0,-29.4,29.64,West,270,2.7,2.7,1,0.00,,,0.00,WUHU216HW,2013-02-04 12:05:00,
2013-02-04 07:29:00,18.0,-29.4,29.64,WSW,248,4.7,4.7,1,0.00,,,0.00,WUHU216HW,2013-02-04 12:29:00,
2013-02-04 07:30:00,18.0,-29.4,29.64,WSW,248,4.7,4.7,1,0.00,,,0.00,WUHU216HW,2013-02-04 12:30:00,
2013-02-04 07:35:00,18.0,-29.4,29.64,WSW,248,4.7,4.7,1,0.00,,,0.00,WUHU216HW,2013-02-04 12:35:00,
2013-02-04 08:00:00,17.6,-29.7,29.66,WNW,293,4.7,4.7,1,0.00,,,0.00,WUHU216HW,2013-02-04 13:00:00,
2013-02-04 08:05:00,17.6,-29.7,29.66,WNW,293,4.7,4.7,1,0.00,,,0.00,WUHU216HW,2013-02-04 13:05:00,
2013-02-04 08:29:00,18.2,-29.2,29.66,WNW,293,4.7,4.7,7,0.00,,,0.00,WUHU216HW,2013-02-04 13:29:00,
2013-02-04 08:30:00,18.2,-29.2,29.66,WNW,293,4.7,4.7,7,0.00,,,0.00,WUHU216HW,2013-02-04 13:30:00,
2013-02-04 08:35:00,18.2,-29.2,29.66,WNW,293,4.7,4.7,7,0.00,,,0.00,WUHU216HW,2013-02-04 13:35:00,
2013-02-04 08:59:00,19.1,-19.3,29.66,WNW,293,4.0,4.0,17,0.00,,,0.00,WUHU216HW,2013-02-04 13:59:00,
2013-02-04 09:00:00,19.1,-19.3,29.66,WNW,293,4.0,4.0,17,0.00,,,0.00,WUHU216HW,2013-02-04 14:00:00,
2013-02-04 09:05:00,19.1,-19.3,29.66,WNW,293,4.0,4.0,17,0.00,,,0.00,WUHU216HW,2013-02-04 14:05:00,
2013-02-04 09:29:00,19.4,-15.1,29.66,NW,315,6.3,6.3,20,0.00,,,0.00,WUHU216HW,2013-02-04 14:29:00,
2013-02-04 09:30:00,19.4,-15.1,29.66,NW,315,6.3,6.3,20,0.00,,,0.00,WUHU216HW,2013-02-04 14:30:00,
2013-02-04 09:35:00,19.4,-15.1,29.66,NW,315,6.3,6.3,20,0.00,,,0.00,WUHU216HW,2013-02-04 14:35:00,
2013-02-04 09:59:00,19.1,-28.5,29.66,WNW,293,7.2,7.2,10,0.00,,,0.00,WUHU216HW,2013-02-04 14:59:00,
2013-02-04 10:00:00,19.1,-28.5,29.66,WNW,293,7.2,7.2,10,0.00,,,0.00,WUHU216HW,2013-02-04 15:00:00,
2013-02-04 10:05:00,19.1,-28.5,29.66,WNW,293,7.2,7.2,10,0.00,,,0.00,WUHU216HW,2013-02-04 15:05:00,
2013-02-04 10:29:00,20.2,-27.7,29.66,NW,315,7.4,7.4,4,0.00,,,0.00,WUHU216HW,2013-02-04 15:29:00,
2013-02-04 10:30:00,20.2,-27.7,29.66,NW,315,7.4,7.4,4,0.00,,,0.00,WUHU216HW,2013-02-04 15:30:00,
2013-02-04 10:35:00,20.2,-27.7,29.66,NW,315,7.4,7.4,4,0.00,,,0.00,WUHU216HW,2013-02-04 15:35:00,
2013-02-04 10:59:00,20.5,-1.2,29.66,NW,315,7.6,7.6,38,0.00,,,0.00,WUHU216HW,2013-02-04 15:59:00,
2013-02-04 11:00:00,20.5,-1.2,29.66,NW,315,7.6,7.6,38,0.00,,,0.00,WUHU216HW,2013-02-04 16:00:00,
2013-02-04 11:05:00,20.5,-1.2,29.66,NW,315,7.6,7.6,38,0.00,,,0.00,WUHU216HW,2013-02-04 16:05:00,
2013-02-04 11:29:00,18.7,-28.8,29.66,WNW,293,6.9,6.9,8,0.00,,,0.00,WUHU216HW,2013-02-04 16:29:00,
2013-02-04 11:30:00,18.7,-28.8,29.66,WNW,293,6.9,6.9,8,0.00,,,0.00,WUHU216HW,2013-02-04 16:30:00,
2013-02-04 11:35:00,18.7,-28.8,29.66,WNW,293,6.9,6.9,8,0.00,,,0.00,WUHU216HW,2013-02-04 16:35:00,
2013-02-04 11:59:00,18.7,-26.2,29.66,West,270,8.5,8.5,12,0.00,,,0.00,WUHU216HW,2013-02-04 16:59:00,
2013-02-04 12:00:00,18.7,-26.2,29.66,West,270,8.5,8.5,12,0.00,,,0.00,WUHU216HW,2013-02-04 17:00:00,
2013-02-04 12:05:00,18.7,-26.2,29.66,West,270,8.5,8.5,12,0.00,,,0.00,WUHU216HW,2013-02-04 17:05:00,
2013-02-04 12:30:00,19.1,-8.2,29.67,West,270,6.7,6.7,29,0.00,,,0.00,WUHU216HW,2013-02-04 17:30:00,
2013-02-04 12:35:00,19.1,-8.2,29.67,West,270,6.7,6.7,29,0.00,,,0.00,WUHU216HW,2013-02-04 17:35:00,
2013-02-04 12:59:00,18.9,-7.5,29.66,NW,315,5.1,5.1,30,0.00,,,0.00,WUHU216HW,2013-02-04 17:59:00,
2013-02-04 13:00:00,18.9,-7.5,29.66,NW,315,5.1,5.1,30,0.00,,,0.00,WUHU216HW,2013-02-04 18:00:00,
2013-02-04 13:04:00,18.9,-7.5,29.66,NW,315,5.1,5.1,30,0.00,,,0.00,WUHU216HW,2013-02-04 18:04:00,
2013-02-04 13:05:00,18.9,-7.5,29.66,NW,315,5.1,5.1,30,0.00,,,0.00,WUHU216HW,2013-02-04 18:05:00,
2013-02-04 13:30:00,19.6,-2.6,29.66,West,270,9.8,9.8,37,0.00,,,0.00,WUHU216HW,2013-02-04 18:30:00,
2013-02-04 13:35:00,19.6,-2.6,29.66,West,270,9.8,9.8,37,0.00,,,0.00,WUHU216HW,2013-02-04 18:35:00,
2013-02-04 13:59:00,19.4,0.0,29.66,NW,315,5.4,5.4,42,0.00,,,0.00,WUHU216HW,2013-02-04 18:59:00,
2013-02-04 14:00:00,19.4,0.0,29.66,NW,315,5.4,5.4,42,0.00,,,0.00,WUHU216HW,2013-02-04 19:00:00,
2013-02-04 14:04:00,19.4,0.0,29.66,NW,315,5.4,5.4,42,0.00,,,0.00,WUHU216HW,2013-02-04 19:04:00,
2013-02-04 14:05:00,19.4,0.0,29.66,NW,315,5.4,5.4,42,0.00,,,0.00,WUHU216HW,2013-02-04 19:05:00,
2013-02-04 14:30:00,19.3,3.2,29.67,NNW,338,2.0,2.0,49,0.00,,,0.00,WUHU216HW,2013-02-04 19:30:00,
2013-02-04 14:35:00,19.3,3.2,29.67,NNW,338,2.0,2.0,49,0.00,,,0.00,WUHU216HW,2013-02-04 19:35:00,
2013-02-04 14:59:00,20.0,6.7,29.67,NNW,338,7.4,7.4,56,0.00,,,0.00,WUHU216HW,2013-02-04 19:59:00,
2013-02-04 15:00:00,20.0,6.7,29.67,NNW,338,7.4,7.4,56,0.00,,,0.00,WUHU216HW,2013-02-04 20:00:00,
2013-02-04 15:04:00,20.0,6.7,29.67,NNW,338,7.4,7.4,56,0.00,,,0.00,WUHU216HW,2013-02-04 20:04:00,
2013-02-04 15:05:00,20.0,6.7,29.67,NNW,338,7.4,7.4,56,0.00,,,0.00,WUHU216HW,2013-02-04 20:05:00,
2013-02-04 15:29:00,18.9,2.8,29.68,NNW,338,5.6,5.6,49,0.00,,,0.00,WUHU216HW,2013-02-04 20:29:00,
2013-02-04 15:30:00,18.9,2.8,29.68,NNW,338,5.6,5.6,49,0.00,,,0.00,WUHU216HW,2013-02-04 20:30:00,
2013-02-04 15:35:00,18.9,2.8,29.68,NNW,338,5.6,5.6,49,0.00,,,0.00,WUHU216HW,2013-02-04 20:35:00,
2013-02-04 15:59:00,18.9,5.7,29.68,WNW,293,6.0,6.0,56,0.00,,,0.00,WUHU216HW,2013-02-04 20:59:00,
2013-02-04 16:00:00,18.9,5.7,29.68,WNW,293,6.0,6.0,56,0.00,,,0.00,WUHU216HW,2013-02-04 21:00:00,
2013-02-04 16:04:00,18.9,5.7,29.68,WNW,293,6.0,6.0,56,0.00,,,0.00,WUHU216HW,2013-02-04 21:04:00,
2013-02-04 16:05:00,18.9,5.7,29.68,WNW,293,6.0,6.0,56,0.00,,,0.00,WUHU216HW,2013-02-04 21:05:00,
2013-02-04 16:06:00,18.9,5.7,29.68,WNW,293,6.0,6.0,56,0.00,,,0.00,WUHU216HW,2013-02-04 21:06:00,
2013-02-04 16:29:00,18.2,5.1,29.68,WNW,293,2.7,2.7,56,0.00,,,0.00,WUHU216HW,2013-02-04 21:29:00,
2013-02-04 16:30:00,18.2,5.1,29.68,WNW,293,2.7,2.7,56,0.00,,,0.00,WUHU216HW,2013-02-04 21:30:00,
2013-02-04 16:35:00,18.2,5.1,29.68,WNW,293,2.7,2.7,56,0.00,,,0.00,WUHU216HW,2013-02-04 21:35:00,
2013-02-04 16:59:00,17.6,3.3,29.69,WNW,293,5.6,5.6,53,0.00,,,0.00,WUHU216HW,2013-02-04 21:59:00,
2013-02-04 17:00:00,17.6,3.3,29.69,WNW,293,5.6,5.6,53,0.00,,,0.00,WUHU216HW,2013-02-04 22:00:00,
2013-02-04 17:04:00,17.6,3.3,29.69,WNW,293,5.6,5.6,53,0.00,,,0.00,WUHU216HW,2013-02-04 22:04:00,
2013-02-04 17:05:00,17.6,3.3,29.69,WNW,293,5.6,5.6,53,0.00,,,0.00,WUHU216HW,2013-02-04 22:05:00,
2013-02-04 17:29:00,17.1,-1.6,29.69,NW,315,2.5,2.5,43,0.00,,,0.00,WUHU216HW,2013-02-04 22:29:00,
2013-02-04 17:30:00,17.1,-1.6,29.69,NW,315,2.5,2.5,43,0.00,,,0.00,WUHU216HW,2013-02-04 22:30:00,
2013-02-04 17:35:00,17.1,-1.6,29.69,NW,315,2.5,2.5,43,0.00,,,0.00,WUHU216HW,2013-02-04 22:35:00,
2013-02-04 17:59:00,16.0,-5.8,29.70,WNW,293,2.2,2.2,37,0.00,,,0.00,WUHU216HW,2013-02-04 22:59:00,
2013-02-04 18:00:00,16.0,-5.8,29.70,WNW,293,2.2,2.2,37,0.00,,,0.00,WUHU216HW,2013-02-04 23:00:00,
2013-02-04 18:04:00,16.0,-5.8,29.70,WNW,293,2.2,2.2,37,0.00,,,0.00,WUHU216HW,2013-02-04 23:04:00,
2013-02-04 18:05:00,16.0,-5.8,29.70,WNW,293,2.2,2.2,37,0.00,,,0.00,WUHU216HW,2013-02-04 23:05:00,
2013-02-04 18:30:00,15.1,-9.5,29.70,West,270,3.4,3.4,32,0.00,,,0.00,WUHU216HW,2013-02-04 23:30:00,
2013-02-04 18:35:00,15.1,-9.5,29.70,West,270,3.4,3.4,32,0.00,,,0.00,WUHU216HW,2013-02-04 23:35:00,
2013-02-04 18:59:00,14.4,-7.4,29.71,West,270,0.0,0.0,37,0.00,,,0.00,WUHU216HW,2013-02-04 23:59:00,
2013-02-04 19:00:00,14.4,-7.4,29.71,West,270,0.0,0.0,37,0.00,,,0.00,WUHU216HW,2013-02-05 00:00:00,
2013-02-04 19:05:00,14.4,-7.4,29.71,West,270,0.0,0.0,37,0.00,,,0.00,WUHU216HW,2013-02-05 00:05:00,
2013-02-04 19:29:00,14.8,-7.0,29.71,North,0,0.0,0.0,37,0.00,,,0.00,WUHU216HW,2013-02-05 00:29:00,
2013-02-04 19:30:00,14.8,-7.0,29.71,North,0,0.0,0.0,37,0.00,,,0.00,WUHU216HW,2013-02-05 00:30:00,
2013-02-04 19:34:00,14.8,-7.0,29.71,North,0,0.0,0.0,37,0.00,,,0.00,WUHU216HW,2013-02-05 00:34:00,
2013-02-04 19:35:00,14.8,-7.0,29.71,North,0,0.0,0.0,37,0.00,,,0.00,WUHU216HW,2013-02-05 00:35:00,
2013-02-04 19:59:00,15.1,-6.6,29.72,West,270,0.4,0.4,37,0.00,,,0.00,WUHU216HW,2013-02-05 00:59:00,
2013-02-04 20:00:00,15.1,-6.6,29.72,West,270,0.4,0.4,37,0.00,,,0.00,WUHU216HW,2013-02-05 01:00:00,
2013-02-04 20:05:00,15.1,-6.6,29.72,West,270,0.4,0.4,37,0.00,,,0.00,WUHU216HW,2013-02-05 01:05:00,
2013-02-04 20:29:00,15.5,-6.4,29.72,WNW,293,0.0,0.0,37,0.00,,,0.00,WUHU216HW,2013-02-05 01:29:00,
2013-02-04 20:30:00,15.5,-6.4,29.72,WNW,293,0.0,0.0,37,0.00,,,0.00,WUHU216HW,2013-02-05 01:30:00,
2013-02-04 20:35:00,15.5,-6.4,29.72,WNW,293,0.0,0.0,37,0.00,,,0.00,WUHU216HW,2013-02-05 01:35:00,
2013-02-04 20:59:00,15.5,-6.4,29.72,WNW,293,0.0,0.0,37,0.00,,,0.00,WUHU216HW,2013-02-05 01:59:00,
2013-02-04 21:00:00,15.5,-6.4,29.72,WNW,293,0.0,0.0,37,0.00,,,0.00,WUHU216HW,2013-02-05 02:00:00,
2013-02-04 21:05:00,15.5,-6.4,29.72,WNW,293,0.0,0.0,37,0.00,,,0.00,WUHU216HW,2013-02-05 02:05:00,
2013-02-04 21:29:00,15.5,-5.7,29.71,WSW,248,0.4,0.4,38,0.00,,,0.00,WUHU216HW,2013-02-05 02:29:00,
2013-02-04 21:30:00,15.5,-5.7,29.71,WSW,248,0.4,0.4,38,0.00,,,0.00,WUHU216HW,2013-02-05 02:30:00,
2013-02-04 21:35:00,15.5,-5.7,29.71,WSW,248,0.4,0.4,38,0.00,,,0.00,WUHU216HW,2013-02-05 02:35:00,
2013-02-04 21:59:00,14.8,-8.2,29.72,WSW,248,0.0,0.0,35,0.00,,,0.00,WUHU216HW,2013-02-05 02:59:00,
2013-02-04 22:00:00,14.8,-8.2,29.72,WSW,248,0.0,0.0,35,0.00,,,0.00,WUHU216HW,2013-02-05 03:00:00,
2013-02-04 22:05:00,14.8,-8.2,29.72,WSW,248,0.0,0.0,35,0.00,,,0.00,WUHU216HW,2013-02-05 03:05:00,
2013-02-04 22:29:00,14.2,-10.3,29.72,SSW,203,0.0,0.0,32,0.00,,,0.00,WUHU216HW,2013-02-05 03:29:00,
2013-02-04 22:30:00,14.2,-10.3,29.72,SSW,203,0.0,0.0,32,0.00,,,0.00,WUHU216HW,2013-02-05 03:30:00,
2013-02-04 22:35:00,14.2,-10.3,29.72,SSW,203,0.0,0.0,32,0.00,,,0.00,WUHU216HW,2013-02-05 03:35:00,
2013-02-04 22:59:00,14.2,-11.5,29.72,SSW,203,0.0,0.0,30,0.00,,,0.00,WUHU216HW,2013-02-05 03:59:00,
2013-02-04 23:00:00,14.2,-11.5,29.72,SSW,203,0.0,0.0,30,0.00,,,0.00,WUHU216HW,2013-02-05 04:00:00,
2013-02-04 23:04:00,14.2,-11.5,29.72,SSW,203,0.0,0.0,30,0.00,,,0.00,WUHU216HW,2013-02-05 04:04:00,
2013-02-04 23:05:00,14.2,-11.5,29.72,SSW,203,0.0,0.0,30,0.00,,,0.00,WUHU216HW,2013-02-05 04:05:00,
2013-02-04 23:29:00,13.1,-10.2,29.72,SSW,203,0.0,0.0,34,0.00,,,0.00,WUHU216HW,2013-02-05 04:29:00,
2013-02-04 23:30:00,13.1,-10.2,29.72,SSW,203,0.0,0.0,34,0.00,,,0.00,WUHU216HW,2013-02-05 04:30:00,
2013-02-04 23:35:00,13.1,-10.2,29.72,SSW,203,0.0,0.0,34,0.00,,,0.00,WUHU216HW,2013-02-05 04:35:00,
2013-02-04 23:59:00,11.9,-10.2,29.72,SSW,203,0.0,0.0,36,0.00,,,0.00,WUHU216HW,2013-02-05 04:59:00,